SHU6645 UHWW-ZYHB

Flight info

Callsign SHU6645
Flight time 1h 12m
Altitude 36100
Route SANAR2W SANAR B451 KETOV KET17A
Aircraft A319/M-SDE3FGHIRWY/LB1

Departure

Time 2026-04-22 19:04
Airport Vladivostok International Airport (UHWW)

Arrival

Time 2026-04-22 20:16
Airport Harbin Taiping International Airport (ZYHB)
Time Latitude Longitude Altitude Speed Heading
2026-04-22 18:49 43.39714 132.16484 69 ft 0 kts 152°
2026-04-22 18:53 43.39720 132.16480 65 ft 4 kts 152°
2026-04-22 18:54 43.39744 132.16463 67 ft 4 kts 152°
2026-04-22 18:54 43.39768 132.16445 67 ft 4 kts 152°
2026-04-22 18:54 43.39792 132.16428 63 ft 4 kts 152°
2026-04-22 18:54 43.39797 132.16424 64 ft 4 kts 159°
2026-04-22 18:55 43.39795 132.16412 68 ft 3 kts 247°
2026-04-22 18:55 43.39780 132.16373 62 ft 4 kts 62°
2026-04-22 18:55 43.39770 132.16348 68 ft 0 kts 62°
2026-04-22 18:59 43.39779 132.16371 67 ft 10 kts 62°
2026-04-22 18:59 43.39824 132.16487 69 ft 15 kts 62°
2026-04-22 18:59 43.39878 132.16617 63 ft 16 kts 61°
2026-04-22 19:00 43.39934 132.16756 67 ft 17 kts 61°
2026-04-22 19:00 43.39983 132.16877 69 ft 8 kts 61°
2026-04-22 19:00 43.40014 132.16953 62 ft 10 kts 61°
2026-04-22 19:00 43.40049 132.17041 69 ft 11 kts 61°
2026-04-22 19:01 43.40116 132.17080 65 ft 12 kts 339°
2026-04-22 19:01 43.40196 132.17028 69 ft 13 kts 334°
2026-04-22 19:01 43.40282 132.16967 63 ft 15 kts 331°
2026-04-22 19:01 43.40337 132.16925 67 ft 5 kts 330°
2026-04-22 19:02 43.40338 132.16925 69 ft 0 kts 330°
2026-04-22 19:02 43.40339 132.16924 67 ft 1 kts 330°
2026-04-22 19:02 43.40371 132.16899 62 ft 9 kts 330°
2026-04-22 19:02 43.40430 132.16818 63 ft 16 kts 276°
2026-04-22 19:03 43.40369 132.16642 59 ft 39 kts 241°
2026-04-22 19:03 43.40110 132.16000 61 ft 112 kts 240°
2026-04-22 19:03 43.39630 132.14823 92 ft 165 kts 240°
2026-04-22 19:03 43.39053 132.13449 631 ft 171 kts 240°
2026-04-22 19:04 43.38474 132.12032 1334 ft 170 kts 241°
2026-04-22 19:04 43.37902 132.10605 1963 ft 175 kts 241°
2026-04-22 19:04 43.37277 132.09044 2328 ft 196 kts 242°
2026-04-22 19:04 43.36606 132.07374 2928 ft 202 kts 243°
2026-04-22 19:05 43.35922 132.05680 3638 ft 203 kts 244°
2026-04-22 19:05 43.35234 132.03973 4336 ft 205 kts 244°
2026-04-22 19:05 43.34481 132.02300 5000 ft 211 kts 233°
2026-04-22 19:05 43.33168 132.01381 5606 ft 228 kts 191°
2026-04-22 19:06 43.31607 132.01893 6214 ft 242 kts 149°
2026-04-22 19:06 43.30562 132.03707 6795 ft 249 kts 106°
2026-04-22 19:06 43.30500 132.06030 7487 ft 244 kts 73°
2026-04-22 19:07 43.31691 132.10377 8970 ft 245 kts 60°
2026-04-22 19:07 43.32374 132.12545 9709 ft 249 kts 61°
2026-04-22 19:07 43.33027 132.14765 10437 ft 253 kts 63°
2026-04-22 19:07 43.33643 132.17047 11146 ft 257 kts 64°
2026-04-22 19:08 43.34235 132.19386 11850 ft 261 kts 65°
2026-04-22 19:08 43.34804 132.21736 12546 ft 265 kts 66°
2026-04-22 19:08 43.35373 132.24165 13213 ft 268 kts 66°
2026-04-22 19:08 43.36170 132.26449 13820 ft 263 kts 44°
2026-04-22 19:09 43.37474 132.28120 14461 ft 252 kts 21°
2026-04-22 19:09 43.39057 132.28984 15092 ft 241 kts
2026-04-22 19:09 43.40685 132.29033 15736 ft 231 kts 342°
2026-04-22 19:09 43.42180 132.28355 16373 ft 224 kts 325°
2026-04-22 19:10 43.43542 132.27310 17001 ft 225 kts 324°
2026-04-22 19:10 43.44917 132.26258 17622 ft 227 kts 325°
2026-04-22 19:10 43.46295 132.25210 17952 ft 231 kts 324°
2026-04-22 19:10 43.47680 132.24122 18014 ft 227 kts 319°
2026-04-22 19:11 43.48660 132.22510 18023 ft 220 kts 292°
2026-04-22 19:11 43.48884 132.20389 18033 ft 242 kts 265°
2026-04-22 19:11 43.48257 132.18058 18032 ft 277 kts 250°
2026-04-22 19:11 43.47376 132.15561 18015 ft 304 kts 249°
2026-04-22 19:12 43.46393 132.12861 18023 ft 324 kts 249°
2026-04-22 19:12 43.45358 132.10072 18018 ft 330 kts 248°
2026-04-22 19:12 43.44309 132.07251 18099 ft 334 kts 248°
2026-04-22 19:12 43.43271 132.04435 18704 ft 336 kts 249°
2026-04-22 19:13 43.42219 132.01564 19374 ft 337 kts 249°
2026-04-22 19:13 43.41167 131.98676 20010 ft 338 kts 249°
2026-04-22 19:13 43.40111 131.95769 20586 ft 341 kts 249°
2026-04-22 19:13 43.39047 131.92847 21183 ft 343 kts 250°
2026-04-22 19:14 43.37977 131.89910 21774 ft 345 kts 250°
2026-04-22 19:14 43.36902 131.86953 22341 ft 347 kts 250°
2026-04-22 19:14 43.35821 131.83983 22897 ft 348 kts 250°
2026-04-22 19:14 43.34746 131.81044 23454 ft 350 kts 250°
2026-04-22 19:15 43.34007 131.79020 23798 ft 351 kts 250°
2026-04-22 19:15 43.32553 131.75041 24481 ft 353 kts 250°
2026-04-22 19:15 43.31448 131.72025 24982 ft 354 kts 250°
2026-04-22 19:15 43.30338 131.69007 25486 ft 354 kts 250°
2026-04-22 19:16 43.29228 131.65990 25996 ft 354 kts 250°
2026-04-22 19:16 43.28118 131.62967 26470 ft 355 kts 250°
2026-04-22 19:16 43.27009 131.59943 26924 ft 356 kts 250°
2026-04-22 19:16 43.25890 131.56903 27371 ft 356 kts 249°
2026-04-22 19:17 43.24786 131.53915 27808 ft 357 kts 250°
2026-04-22 19:17 43.23663 131.50880 28232 ft 357 kts 250°
2026-04-22 19:17 43.22617 131.47801 28661 ft 354 kts 255°
2026-04-22 19:17 43.21994 131.44570 29063 ft 349 kts 264°
2026-04-22 19:18 43.21828 131.41262 29438 ft 347 kts 273°
2026-04-22 19:18 43.22034 131.37964 29799 ft 348 kts 276°
2026-04-22 19:18 43.22277 131.34650 30166 ft 350 kts 275°
2026-04-22 19:18 43.22517 131.31331 30519 ft 351 kts 275°
2026-04-22 19:19 43.22751 131.28041 30828 ft 352 kts 275°
2026-04-22 19:19 43.22987 131.24697 31133 ft 354 kts 275°
2026-04-22 19:19 43.23223 131.21326 31436 ft 356 kts 275°
2026-04-22 19:19 43.23448 131.17952 31776 ft 355 kts 274°
2026-04-22 19:20 43.23631 131.14588 32197 ft 353 kts 273°
2026-04-22 19:20 43.23787 131.11243 32599 ft 351 kts 273°
2026-04-22 19:20 43.23934 131.07903 32983 ft 350 kts 272°
2026-04-22 19:20 43.24078 131.04579 33368 ft 348 kts 272°
2026-04-22 19:21 43.24223 131.01265 33740 ft 348 kts 272°
2026-04-22 19:21 43.24369 130.98009 34094 ft 346 kts 272°
2026-04-22 19:21 43.24521 130.94717 34431 ft 346 kts 272°
2026-04-22 19:21 43.24674 130.91427 34743 ft 346 kts 272°
2026-04-22 19:22 43.24828 130.88132 35020 ft 347 kts 273°
2026-04-22 19:22 43.24978 130.84825 35264 ft 348 kts 272°
2026-04-22 19:22 43.25128 130.81510 35475 ft 349 kts 273°
2026-04-22 19:22 43.25277 130.78186 35727 ft 349 kts 272°
2026-04-22 19:23 43.25423 130.74906 35959 ft 350 kts 272°
2026-04-22 19:23 43.25572 130.71566 36093 ft 351 kts 273°
2026-04-22 19:23 43.25722 130.68246 36125 ft 348 kts 273°
2026-04-22 19:24 43.26013 130.61641 36121 ft 346 kts 273°
2026-04-22 19:24 43.26302 130.55047 36128 ft 346 kts 273°
2026-04-22 19:25 43.26585 130.48454 36129 ft 347 kts 273°
2026-04-22 19:25 43.26860 130.41889 36115 ft 347 kts 272°
2026-04-22 19:26 43.27135 130.35276 36119 ft 347 kts 273°
2026-04-22 19:26 43.27405 130.28657 36113 ft 348 kts 273°
2026-04-22 19:27 43.27669 130.22035 36111 ft 347 kts 272°
2026-04-22 19:27 43.27930 130.15450 36106 ft 348 kts 273°
2026-04-22 19:28 43.28191 130.08815 36106 ft 348 kts 273°
2026-04-22 19:28 43.28448 130.02176 36106 ft 349 kts 273°
2026-04-22 19:29 43.28704 129.95532 36102 ft 349 kts 272°
2026-04-22 19:29 43.28952 129.88874 36099 ft 350 kts 272°
2026-04-22 19:30 43.29171 129.83341 36100 ft 350 kts 275°
2026-04-22 19:30 43.29946 129.79044 36101 ft 354 kts 289°
2026-04-22 19:30 43.31139 129.76067 36101 ft 361 kts 300°
2026-04-22 19:31 43.34552 129.70882 36104 ft 367 kts 306°
2026-04-22 19:31 43.38040 129.65748 36100 ft 368 kts 306°
2026-04-22 19:32 43.41501 129.60637 36100 ft 368 kts 306°
2026-04-22 19:32 43.44996 129.55483 36099 ft 369 kts 306°
2026-04-22 19:33 43.48498 129.50320 36102 ft 369 kts 306°
2026-04-22 19:33 43.51995 129.45137 36103 ft 369 kts 306°
2026-04-22 19:34 43.55475 129.39988 36107 ft 370 kts 306°
2026-04-22 19:34 43.58978 129.34801 36109 ft 369 kts 306°
2026-04-22 19:35 43.62470 129.29610 36111 ft 369 kts 306°
2026-04-22 19:35 43.65375 129.25281 36104 ft 369 kts 306°
2026-04-22 19:36 43.69450 129.19188 36111 ft 370 kts 306°
2026-04-22 19:36 43.72916 129.13994 36106 ft 370 kts 306°
2026-04-22 19:37 43.76421 129.08776 36112 ft 370 kts 306°
2026-04-22 19:37 43.79953 129.03589 36110 ft 370 kts 306°
2026-04-22 19:38 43.83490 128.98404 36106 ft 370 kts 306°
2026-04-22 19:38 43.86990 128.93254 36105 ft 369 kts 306°
2026-04-22 19:39 43.90494 128.88062 36097 ft 368 kts 306°
2026-04-22 19:39 43.93990 128.82862 36093 ft 369 kts 306°
2026-04-22 19:40 43.97487 128.77665 36097 ft 368 kts 306°
2026-04-22 19:40 44.00962 128.72489 36094 ft 369 kts 307°
2026-04-22 19:41 44.04460 128.67268 36086 ft 370 kts 307°
2026-04-22 19:41 44.07975 128.62027 36084 ft 371 kts 307°
2026-04-22 19:42 44.11503 128.56759 36086 ft 372 kts 307°
2026-04-22 19:42 44.15012 128.51516 36093 ft 373 kts 307°
2026-04-22 19:43 44.20334 128.43598 36099 ft 373 kts 307°
2026-04-22 19:43 44.23885 128.38315 36096 ft 373 kts 307°
2026-04-22 19:44 44.27429 128.33026 36099 ft 373 kts 307°
2026-04-22 19:44 44.30937 128.27759 36100 ft 373 kts 307°
2026-04-22 19:45 44.34477 128.22455 36100 ft 373 kts 307°
2026-04-22 19:45 44.38006 128.17147 36099 ft 373 kts 307°
2026-04-22 19:46 44.41532 128.11833 36097 ft 373 kts 307°
2026-04-22 19:46 44.45052 128.06522 36090 ft 372 kts 307°
2026-04-22 19:47 44.46790 128.03892 35845 ft 373 kts 307°
2026-04-22 19:47 44.48552 128.01225 35597 ft 372 kts 307°
2026-04-22 19:47 44.49737 127.99431 35429 ft 371 kts 307°
2026-04-22 19:47 44.52053 127.95928 35098 ft 369 kts 307°
2026-04-22 19:48 44.53795 127.93291 34848 ft 367 kts 307°
2026-04-22 19:48 44.55522 127.90675 34598 ft 364 kts 306°
2026-04-22 19:48 44.57237 127.88073 34348 ft 362 kts 307°
2026-04-22 19:48 44.58937 127.85489 34097 ft 359 kts 306°
2026-04-22 19:49 44.60603 127.82951 33848 ft 357 kts 306°
2026-04-22 19:49 44.62280 127.80395 33598 ft 355 kts 306°
2026-04-22 19:49 44.63945 127.77856 33348 ft 352 kts 306°
2026-04-22 19:49 44.65598 127.75330 33099 ft 350 kts 306°
2026-04-22 19:50 44.67242 127.72819 32854 ft 347 kts 307°
2026-04-22 19:50 44.68861 127.70345 32506 ft 341 kts 307°
2026-04-22 19:50 44.70451 127.67911 32117 ft 336 kts 307°
2026-04-22 19:50 44.72021 127.65508 31726 ft 332 kts 307°
2026-04-22 19:51 44.73572 127.63135 31339 ft 328 kts 307°
2026-04-22 19:51 44.75084 127.60819 30968 ft 324 kts 307°
2026-04-22 19:51 44.76601 127.58494 30599 ft 321 kts 307°
2026-04-22 19:51 44.78099 127.56196 30236 ft 316 kts 307°
2026-04-22 19:52 44.79575 127.53926 29884 ft 313 kts 307°
2026-04-22 19:52 44.81036 127.51677 29540 ft 309 kts 307°
2026-04-22 19:52 44.82476 127.49456 29197 ft 305 kts 308°
2026-04-22 19:52 44.83893 127.47266 28876 ft 301 kts 307°
2026-04-22 19:53 44.85293 127.45099 28551 ft 296 kts 308°
2026-04-22 19:53 44.86671 127.42973 28236 ft 292 kts 308°
2026-04-22 19:53 44.87574 127.41581 28033 ft 289 kts 308°
2026-04-22 19:53 44.89347 127.38836 27621 ft 284 kts 308°
2026-04-22 19:54 44.90672 127.36778 27312 ft 283 kts 308°
2026-04-22 19:54 44.91993 127.34727 26998 ft 281 kts 308°
2026-04-22 19:54 44.93304 127.32692 26685 ft 280 kts 308°
2026-04-22 19:54 44.94612 127.30668 26374 ft 278 kts 308°
2026-04-22 19:55 44.95912 127.28653 26050 ft 277 kts 308°
2026-04-22 19:55 44.97187 127.26676 25751 ft 276 kts 308°
2026-04-22 19:55 44.98473 127.24674 25424 ft 274 kts 308°
2026-04-22 19:55 44.99749 127.22683 25101 ft 273 kts 309°
2026-04-22 19:56 45.01021 127.20697 24782 ft 272 kts 309°
2026-04-22 19:56 45.02290 127.18720 24388 ft 270 kts 309°
2026-04-22 19:56 45.03554 127.16763 23994 ft 269 kts 310°
2026-04-22 19:56 45.04826 127.14839 23609 ft 267 kts 310°
2026-04-22 19:57 45.06100 127.12930 23224 ft 267 kts 310°
2026-04-22 19:57 45.07401 127.10976 22858 ft 283 kts 310°
2026-04-22 19:57 45.08758 127.08931 22477 ft 286 kts 310°
2026-04-22 19:57 45.10120 127.06878 22103 ft 285 kts 310°
2026-04-22 19:58 45.11476 127.04833 21728 ft 285 kts 311°
2026-04-22 19:58 45.12828 127.02794 21356 ft 283 kts 311°
2026-04-22 19:58 45.14168 127.00765 20974 ft 282 kts 310°
2026-04-22 19:58 45.15504 126.98741 20598 ft 280 kts 311°
2026-04-22 19:59 45.16832 126.96729 20224 ft 279 kts 311°
2026-04-22 20:00 45.24626 126.84907 17968 ft 270 kts 311°
2026-04-22 20:00 45.25899 126.82962 17588 ft 268 kts 311°
2026-04-22 20:01 45.27161 126.81037 17203 ft 266 kts 311°
2026-04-22 20:01 45.28423 126.79114 16829 ft 266 kts 311°
2026-04-22 20:01 45.29680 126.77192 16450 ft 265 kts 312°
2026-04-22 20:01 45.30932 126.75276 16074 ft 264 kts 312°
2026-04-22 20:02 45.32163 126.73394 15706 ft 263 kts 312°
2026-04-22 20:02 45.33406 126.71491 15332 ft 263 kts 312°
2026-04-22 20:02 45.34645 126.69592 14951 ft 261 kts 312°
2026-04-22 20:02 45.35879 126.67698 14577 ft 261 kts 312°
2026-04-22 20:03 45.37112 126.65807 14196 ft 260 kts 312°
2026-04-22 20:03 45.38338 126.63930 13814 ft 259 kts 312°
2026-04-22 20:03 45.39563 126.62051 13441 ft 258 kts 312°
2026-04-22 20:03 45.40779 126.60184 13070 ft 256 kts 312°
2026-04-22 20:04 45.41990 126.58323 12695 ft 256 kts 312°
2026-04-22 20:04 45.43183 126.56486 12321 ft 256 kts 312°
2026-04-22 20:04 45.44386 126.54636 11941 ft 254 kts 312°
2026-04-22 20:04 45.45585 126.52791 11772 ft 254 kts 312°
2026-04-22 20:05 45.46783 126.50929 11778 ft 255 kts 312°
2026-04-22 20:05 45.47982 126.49063 11779 ft 256 kts 312°
2026-04-22 20:05 45.49184 126.47191 11785 ft 257 kts 312°
2026-04-22 20:05 45.50386 126.45318 11780 ft 254 kts 312°
2026-04-22 20:06 45.51576 126.43460 11780 ft 254 kts 312°
2026-04-22 20:06 45.52744 126.41636 11769 ft 248 kts 312°
2026-04-22 20:06 45.53874 126.39877 11769 ft 235 kts 312°
2026-04-22 20:06 45.55034 126.38274 11769 ft 232 kts 325°
2026-04-22 20:07 45.56572 126.37544 11770 ft 241 kts 352°
2026-04-22 20:07 45.58237 126.38124 11771 ft 260 kts 23°
2026-04-22 20:07 45.59702 126.39709 11772 ft 266 kts 31°
2026-04-22 20:07 45.61136 126.41394 11770 ft 267 kts 31°
2026-04-22 20:08 45.62563 126.43096 11770 ft 268 kts 31°
2026-04-22 20:08 45.63971 126.44779 11769 ft 267 kts 31°
2026-04-22 20:08 45.65399 126.46481 11770 ft 267 kts 31°
2026-04-22 20:08 45.66829 126.48180 11771 ft 267 kts 31°
2026-04-22 20:09 45.68261 126.49875 11770 ft 267 kts 31°
2026-04-22 20:09 45.69693 126.51564 11770 ft 267 kts 31°
2026-04-22 20:09 45.71129 126.53258 11769 ft 267 kts 31°
2026-04-22 20:09 45.72560 126.54951 11771 ft 267 kts 31°
2026-04-22 20:10 45.73989 126.56648 11770 ft 267 kts 31°
2026-04-22 20:10 45.75392 126.58321 11765 ft 256 kts 31°
2026-04-22 20:10 45.76734 126.59914 11315 ft 256 kts 29°
2026-04-22 20:10 45.78286 126.60927 10642 ft 240 kts 356°
2026-04-22 20:11 45.79818 126.60367 10033 ft 227 kts 320°
2026-04-22 20:11 45.80667 126.58541 9424 ft 226 kts 282°
2026-04-22 20:11 45.80478 126.56311 8805 ft 235 kts 245°
2026-04-22 20:11 45.79318 126.54602 8173 ft 247 kts 219°
2026-04-22 20:12 45.78030 126.53005 7498 ft 242 kts 241°
2026-04-22 20:12 45.77492 126.50799 6873 ft 234 kts 266°
2026-04-22 20:12 45.77377 126.49258 6458 ft 236 kts 266°
2026-04-22 20:12 45.77095 126.46125 5618 ft 239 kts 264°
2026-04-22 20:13 45.76864 126.43795 4983 ft 240 kts 263°
2026-04-22 20:13 45.76260 126.41568 4335 ft 245 kts 236°
2026-04-22 20:13 45.75003 126.39867 3671 ft 252 kts 221°
2026-04-22 20:13 45.73637 126.38291 3089 ft 250 kts 221°
2026-04-22 20:14 45.72320 126.36759 2720 ft 239 kts 220°
2026-04-22 20:14 45.71070 126.35285 2391 ft 227 kts 219°
2026-04-22 20:14 45.69872 126.33875 2090 ft 219 kts 218°
2026-04-22 20:14 45.68720 126.32517 1800 ft 210 kts 218°
2026-04-22 20:15 45.67629 126.31233 1543 ft 195 kts 219°
2026-04-22 20:15 45.66636 126.30066 1298 ft 182 kts 219°
2026-04-22 20:15 45.65716 126.28985 1063 ft 160 kts 219°
2026-04-22 20:15 45.64905 126.28032 851 ft 143 kts 219°
2026-04-22 20:16 45.64157 126.27155 659 ft 136 kts 219°
2026-04-22 20:16 45.63437 126.26300 481 ft 133 kts 219°
2026-04-22 20:16 45.62769 126.25522 452 ft 99 kts 219°
2026-04-22 20:16 45.62456 126.25149 454 ft 35 kts 220°
2026-04-22 20:17 45.62281 126.24935 455 ft 24 kts 227°
2026-04-22 20:17 45.62195 126.24736 458 ft 24 kts 249°
2026-04-22 20:17 45.62144 126.24553 458 ft 19 kts 248°
2026-04-22 20:17 45.62090 126.24380 460 ft 19 kts 271°
2026-04-22 20:18 45.62160 126.24217 460 ft 20 kts 307°
2026-04-22 20:18 45.62241 126.24081 458 ft 10 kts 309°
2026-04-22 20:18 45.62234 126.23993 457 ft 10 kts 223°
2026-04-22 20:18 45.62212 126.23967 460 ft 0 kts 219°